Weather reports worldwide

Advertisment
Dunkerque, France (7010): temperature & dewpoint: 09.09.2019 10:00:00 - 15.09.2019 10:00:00 (CEST)Dunkerque, France (7010): wind speed & gusts: 09.09.2019 10:00:00 - 15.09.2019 10:00:00 (CEST)Dunkerque, France (7010): wind direction: 09.09.2019 10:00:00 - 15.09.2019 10:00:00 (CEST)Dunkerque, France (7010): reduced air pressure: 09.09.2019 10:00:00 - 15.09.2019 10:00:00 (CEST)Dunkerque, France (7010): visibility: 09.09.2019 10:00:00 - 15.09.2019 10:00:00 (CEST)Dunkerque, France (7010): precipitation: 09.09.2019 10:00:00 - 15.09.2019 10:00:00 (CEST)
Date & Time tt [°C] td [°C] ff [km/h] ff [kn] fx [km/h] fx [kn] dd ppp [hPa] vv [km] rr [mm]
15.09.2019 10:00:00 17,7 14,2 11 6 19 10 W 1025,2 - 0,0
15.09.2019 09:00:00 14,4 12,4 6 4 16 8 SSW 1024,7 - 0,0
15.09.2019 08:00:00 13,9 12,3 7 4 9 5 SSW 1025,0 15 0,0
15.09.2019 07:00:00 12,9 11,0 5 3 11 6 SSW 1025,1 - 0,0
15.09.2019 06:00:00 12,8 11,4 5 3 11 6 SSW 1025,2 - 0,2
15.09.2019 05:00:00 12,6 11,3 2 1 8 4 SSW 1025,4 - 0,0
15.09.2019 04:00:00 13,4 11,5 4 2 9 5 SSW 1025,8 - 0,0
15.09.2019 03:00:00 14,7 12,6 0 0 4 2 N 1026,6 - 0,0
15.09.2019 02:00:00 14,9 12,2 3 2 5 3 S 1026,9 15 0,0
15.09.2019 01:00:00 15,2 12,0 0 0 4 2 N 1027,4 - 0,0
15.09.2019 00:00:00 16,0 12,9 2 1 9 5 ESE 1028,0 - 0,0
14.09.2019 23:00:00 16,6 13,3 8 5 14 7 E 1028,2 15 0,0
14.09.2019 22:00:00 17,0 13,7 10 5 15 8 NE 1028,8 - 0,0
14.09.2019 21:00:00 17,2 13,5 11 6 16 9 ENE 1029,1 - 0,0
14.09.2019 20:00:00 17,7 13,8 13 7 18 10 NE 1028,9 15 0,0
14.09.2019 19:00:00 18,3 13,6 14 8 23 12 ENE 1029,3 - 0,0
14.09.2019 18:00:00 19,5 13,2 17 9 24 13 NE 1029,7 - 0,0
14.09.2019 17:00:00 20,1 13,1 19 10 26 14 NE 1030,0 - 0,0
14.09.2019 16:00:00 20,3 13,7 21 11 25 14 NNE 1030,9 - 0,0
14.09.2019 15:00:00 19,5 13,4 19 11 27 15 NNE 1031,6 - 0,0
14.09.2019 14:00:00 19,2 13,1 17 9 23 12 NNE 1032,3 15 0,0
14.09.2019 13:00:00 19,2 12,7 13 7 16 9 NNE 1032,7 - 0,0
14.09.2019 12:00:00 18,2 11,7 10 5 13 7 NE 1033,3 - 0,0
14.09.2019 11:00:00 17,8 11,8 8 4 11 6 NE 1033,6 15 0,0
14.09.2019 10:00:00 17,2 11,5 8 4 16 9 E 1033,8 - 0,0
14.09.2019 09:00:00 16,1 12,8 9 5 13 7 E 1033,9 - 0,0
14.09.2019 08:00:00 14,7 11,7 11 6 15 8 E 1033,7 - 0,0
14.09.2019 07:00:00 14,7 11,8 12 6 18 10 E 1033,7 - 0,0
14.09.2019 06:00:00 14,9 12,4 10 5 18 10 E 1033,9 - 0,0
14.09.2019 05:00:00 16,2 11,1 18 10 29 16 E 1034,4 15 0,0
14.09.2019 04:00:00 16,4 11,5 24 13 32 17 NE 1034,5 - 0,0
14.09.2019 03:00:00 16,4 11,8 22 12 30 16 NE 1034,6 - 0,0
14.09.2019 02:00:00 16,3 11,7 21 11 29 16 NE 1035,0 15 0,0
14.09.2019 01:00:00 16,0 11,4 21 11 30 16 NE 1035,5 - 0,0
14.09.2019 00:00:00 16,0 11,4 22 12 30 16 NE 1035,4 - 0,0
13.09.2019 23:00:00 16,0 11,6 22 12 29 16 NE 1035,5 - 0,0
13.09.2019 22:00:00 16,0 11,6 22 12 31 17 NE 1035,1 - 0,0
13.09.2019 21:00:00 16,3 12,1 21 11 32 17 NE 1035,4 - 0,0
13.09.2019 20:00:00 16,5 11,8 23 13 32 17 NNE 1035,0 - 0,0
13.09.2019 19:00:00 17,3 12,8 24 13 33 18 NNE 1034,7 - 0,0
13.09.2019 18:00:00 17,9 13,0 25 14 34 18 NNE 1034,7 - 0,0
13.09.2019 17:00:00 18,3 13,2 22 12 33 18 NNE 1034,6 - 0,0
13.09.2019 16:00:00 18,7 13,8 22 12 31 17 NNE 1034,7 - 0,0
13.09.2019 15:00:00 19,2 14,2 23 13 33 18 NNE 1034,5 - 0,0
13.09.2019 14:00:00 19,4 14,4 24 13 30 16 NNE 1034,4 15 0,0
13.09.2019 13:00:00 19,3 14,8 22 12 28 15 NNE 1034,1 - 0,0
13.09.2019 12:00:00 18,3 14,8 21 12 28 15 NNE 1034,1 - 0,0
13.09.2019 11:00:00 18,5 15,7 17 9 29 16 NNE 1033,6 - 0,0
13.09.2019 10:00:00 17,7 16,2 22 12 32 17 NNE 1032,6 - 0,0
13.09.2019 09:00:00 17,7 16,9 10 5 27 15 NW 1032,0 - 0,4
13.09.2019 08:00:00 17,7 16,6 18 10 26 14 W 1031,6 - 0,2
13.09.2019 07:00:00 18,0 16,3 18 10 29 16 W 1031,0 - 0,0
13.09.2019 06:00:00 18,2 16,0 20 11 37 20 W 1030,3 - 0,0
13.09.2019 05:00:00 18,2 15,8 25 14 43 23 W 1030,1 - 0,0
13.09.2019 04:00:00 18,2 15,6 27 15 48 26 W 1029,8 - 0,0
13.09.2019 03:00:00 18,1 15,2 20 11 44 24 WSW 1029,9 - 0,0
13.09.2019 02:00:00 18,1 14,8 29 15 52 28 W 1029,6 15 0,0
13.09.2019 01:00:00 18,4 14,9 34 18 55 30 W 1029,3 - 0,0
13.09.2019 00:00:00 18,5 15,6 28 15 55 30 W 1029,6 - 0,0
12.09.2019 23:00:00 18,4 15,5 28 15 59 32 WSW 1029,1 15 0,0
12.09.2019 22:00:00 18,5 15,4 26 14 59 32 W 1029,2 - 0,0
12.09.2019 21:00:00 19,0 15,9 25 13 55 30 SW 1029,1 - 0,0
12.09.2019 20:00:00 19,2 14,9 21 11 53 29 SW 1028,9 - 0,0
12.09.2019 19:00:00 20,0 14,8 26 14 53 28 SW 1028,7 - 0,0
12.09.2019 18:00:00 20,6 15,2 30 16 50 27 SW 1028,8 - 0,0
12.09.2019 17:00:00 20,9 15,9 23 13 50 27 SW 1028,8 - 0,0
12.09.2019 16:00:00 21,4 16,4 26 14 45 24 SW 1029,0 - 0,0
12.09.2019 15:00:00 21,0 16,2 20 11 43 23 SW 1029,4 - 0,0
12.09.2019 14:00:00 21,2 15,3 18 10 39 21 WSW 1029,0 15 0,0
12.09.2019 13:00:00 20,1 14,9 27 15 38 21 W 1029,3 - 0,0
12.09.2019 12:00:00 19,3 13,7 26 14 40 22 W 1029,0 - 0,0
12.09.2019 11:00:00 18,7 14,0 27 14 39 21 W 1028,6 15 0,0
12.09.2019 10:00:00 17,8 14,7 25 14 39 21 W 1028,0 - 0,0
12.09.2019 09:00:00 17,4 13,9 24 13 44 24 W 1027,0 - 0,0
12.09.2019 08:00:00 17,7 15,0 23 12 37 20 W 1026,3 18 0,0
12.09.2019 07:00:00 17,7 14,6 24 13 34 18 W 1025,7 - 0,0
12.09.2019 06:00:00 18,0 15,3 26 14 37 20 W 1025,4 - 0,0
12.09.2019 05:00:00 18,2 15,6 22 12 37 20 W 1025,1 - 0,0
12.09.2019 04:00:00 18,5 16,1 25 14 42 23 W 1025,0 - 0,0
12.09.2019 03:00:00 18,5 15,9 26 14 46 25 W 1024,5 - 0,0
12.09.2019 02:00:00 18,4 16,4 26 14 39 21 W 1024,3 15 0,0
12.09.2019 01:00:00 18,7 16,8 19 11 40 22 SW 1023,8 - 0,0
12.09.2019 00:00:00 18,5 16,7 18 10 48 26 SW 1023,5 - 0,0
11.09.2019 23:00:00 18,4 16,7 19 10 54 29 WSW 1023,1 15 0,0
11.09.2019 22:00:00 18,5 17,0 22 12 58 31 WSW 1022,8 - 0,0
11.09.2019 21:00:00 18,4 16,9 21 12 50 27 WSW 1022,6 - 0,0
11.09.2019 20:00:00 18,3 16,8 23 12 49 26 WSW 1021,9 8 0,0
11.09.2019 19:00:00 18,4 16,2 25 14 49 27 WSW 1021,9 - 0,0
11.09.2019 18:00:00 18,3 16,5 24 13 56 30 WSW 1021,6 - 0,0
11.09.2019 17:00:00 18,7 15,9 26 14 60 33 SW 1021,2 - 0,0
11.09.2019 16:00:00 18,5 15,6 28 15 60 32 SW 1020,9 - 0,0
11.09.2019 15:00:00 18,1 15,0 27 15 59 32 SW 1021,4 - 0,0
11.09.2019 14:00:00 18,2 15,1 31 17 56 30 SW 1021,3 15 0,0
11.09.2019 13:00:00 17,1 14,0 23 12 61 33 SW 1021,2 - 0,0
11.09.2019 12:00:00 16,9 12,8 22 12 44 24 SW 1021,2 - 0,0
11.09.2019 11:00:00 16,8 11,7 20 11 36 19 SW 1020,9 15 0,0
11.09.2019 10:00:00 16,6 12,9 17 9 30 16 SSW 1020,8 - 0,0
11.09.2019 09:00:00 15,6 13,3 16 8 22 12 S 1020,5 - 0,0
11.09.2019 08:00:00 15,7 13,4 13 7 22 12 S 1020,5 10 0,0
11.09.2019 07:00:00 15,7 13,0 15 8 26 14 SSW 1020,3 - 0,0
11.09.2019 06:00:00 15,2 13,2 11 6 20 11 SSW 1020,2 - 0,0
11.09.2019 05:00:00 15,0 13,2 10 6 20 11 SSW 1020,2 15 0,0
11.09.2019 04:00:00 14,7 12,7 15 8 23 12 SSW 1020,9 - 0,0
11.09.2019 03:00:00 14,6 12,6 15 8 21 12 SSW 1020,9 - 0,0
11.09.2019 02:00:00 15,0 12,9 14 8 22 12 S 1021,0 15 0,0
11.09.2019 01:00:00 15,4 12,7 12 7 23 13 SSW 1021,0 - 0,0
11.09.2019 00:00:00 16,8 12,7 14 8 23 12 SSW 1021,1 - 0,0
10.09.2019 23:00:00 17,3 12,6 11 6 21 11 WSW 1020,9 - 0,0
10.09.2019 22:00:00 17,5 12,2 10 5 26 14 WSW 1020,8 - 0,0
10.09.2019 21:00:00 17,6 12,3 16 9 26 14 W 1020,6 - 0,0
10.09.2019 20:00:00 17,7 11,9 16 9 23 12 W 1020,3 15 0,0
10.09.2019 19:00:00 17,7 10,8 14 7 19 11 WNW 1020,1 - 0,0
10.09.2019 18:00:00 18,5 11,3 13 7 19 10 WNW 1020,2 - 0,0
10.09.2019 17:00:00 18,9 11,5 11 6 16 9 NW 1019,8 - 0,0
10.09.2019 16:00:00 18,4 10,7 11 6 18 10 NW 1019,4 - 0,0
10.09.2019 15:00:00 18,9 11,0 13 7 20 11 NW 1019,8 - 0,0
10.09.2019 14:00:00 18,3 10,6 13 7 18 10 NW 1019,7 - 0,0
10.09.2019 13:00:00 17,9 10,8 12 7 19 10 NNW 1019,4 - 0,0
10.09.2019 12:00:00 17,9 10,3 11 6 18 10 NNW 1019,0 - 0,0
10.09.2019 11:00:00 17,6 12,3 8 4 11 6 NW 1018,7 15 0,0
10.09.2019 10:00:00 16,3 11,7 7 4 9 5 WNW 1018,1 - 0,0
10.09.2019 09:00:00 14,6 11,0 3 1 6 4 S 1017,3 - 0,0
10.09.2019 08:00:00 11,6 9,5 6 3 9 5 S 1016,8 - 0,0
10.09.2019 07:00:00 10,3 8,4 5 3 9 5 SSW 1016,1 - 0,0
10.09.2019 06:00:00 11,7 9,8 4 2 9 5 SSW 1015,5 - 0,0
10.09.2019 05:00:00 11,3 8,5 4 2 9 5 SSW 1015,6 - 0,0
10.09.2019 04:00:00 12,0 8,7 5 3 10 5 S 1015,4 - 0,0
10.09.2019 03:00:00 12,6 8,9 8 4 13 7 SSE 1015,2 - 0,0
10.09.2019 02:00:00 12,8 8,7 10 6 16 9 SSE 1014,7 12 0,0
10.09.2019 01:00:00 13,1 8,6 11 6 18 10 SE 1014,3 - 0,0
10.09.2019 00:00:00 13,6 8,4 10 5 14 8 ESE 1014,2 - 0,0
09.09.2019 23:00:00 14,6 8,3 10 6 20 11 SSE 1014,0 12 0,0
09.09.2019 22:00:00 15,3 8,5 12 6 19 10 ESE 1013,9 - 0,0
09.09.2019 21:00:00 15,9 7,4 5 3 12 6 S 1013,5 - 0,0
09.09.2019 20:00:00 17,0 7,3 9 5 20 11 S 1013,1 12 0,0
09.09.2019 19:00:00 17,4 7,4 12 6 27 15 SSW 1012,9 - 0,0
09.09.2019 18:00:00 17,6 7,6 13 7 27 15 S 1012,7 - 0,0
09.09.2019 17:00:00 17,1 7,4 18 10 32 17 S 1013,0 - 0,0
09.09.2019 16:00:00 16,9 7,5 16 9 28 15 S 1013,4 - 0,0
09.09.2019 15:00:00 16,3 8,8 16 9 25 14 S 1013,9 - 0,0
09.09.2019 14:00:00 15,7 8,2 18 10 34 19 S 1014,5 - 0,0
09.09.2019 13:00:00 15,2 7,7 18 10 27 15 SSW 1014,8 - 0,0
09.09.2019 12:00:00 14,4 8,6 18 10 30 16 SSW 1015,1 - 0,0
09.09.2019 11:00:00 14,1 8,7 17 9 29 15 S 1015,5 - 0,0
09.09.2019 10:00:00 13,3 8,8 16 9 24 13 SSW 1015,7 - 0,0

tt = temperature
td = dewpoint
ff = wind speed
fx = gusts
dd = wind direction
ppp = reduced air pressure
vv = visibility
rr = precipitation

Next stations